Northeast Philadelphia, PA

11:18 PM EST on January 22, 2018 (GMT -0500)
Northeast Philadelphia

Weather History for KPNE - January, 2014

Change the Weather History Date:

Sunday, January 12, 2014

  Actual Average Record
Temperature  
Mean Temperature 43 °F -  
Max Temperature 53 °F 37 °F 66 °F (2017)
Min Temperature 33 °F 23 °F 17 °F (1997)
Degree Days  
Heating Degree Days 22    
Moisture  
Dew Point 32 °F    
Average Humidity 65    
Maximum Humidity 94    
Minimum Humidity 51    
Precipitation  
Precipitation 0.00 in - - ()
Sea Level Pressure  
Sea Level Pressure 29.82 in    
Wind  
Wind Speed 12 mph (WNW)    
Max Wind Speed 18 mph    
Max Gust Speed 30 mph    
Visibility 10 miles    
Events Rain    
Averages and records for this station are not official NWS values.
T = Trace of Precipitation, MM = Missing Value Source: NWS Daily Summary

Daily Weather History Graph

Daily Weather History Graph

Search for Another Location

Airport or City:

Trip Planner

Search our weather history database for the weather conditions in past years. The results will help you decide how hot, cold, wet, or windy it might be!

Date:

Astronomy

Jan. 12, 2014 Rise Set
Actual Time 7:21 AM EST 4:55 PM EST
Civil Twilight 6:51 AM EST 5:25 PM EST
Nautical Twilight 6:17 AM EST 5:59 PM EST
Astronomical Twilight 5:45 AM EST 6:31 PM EST
Moon 2:21 PM EST (1/12) 4:17 AM EST (1/12)
Length of Visible Light 10h 34m
Length of Day
9h 34m
Waxing Gibbous, 89% of the Moon is Illuminated
Jan 12
Waxing Gibbous
Jan 15
Full
Jan 24
Last Quarter
Jan 30
New
Feb 6
First Quarter

Hourly Weather History & Observations

Time (EST) Temp. Windchill Dew Point Humidity Pressure Visibility Wind Dir Wind Speed Gust Speed Precip Events Conditions
12:10 AM 53.6 °F - 51.8 °F 94% 29.48 in 10.0 mi West 10.4 mph - 0.00 in Rain Light Rain
12:19 AM 53.6 °F - 50.0 °F 88% 29.48 in 10.0 mi West 15.0 mph 23.0 mph 0.00 in Rain Light Rain
12:37 AM 53.6 °F - 46.4 °F 77% 29.50 in 10.0 mi WNW 13.8 mph - 0.00 in   Overcast
12:54 AM 52.0 °F - 44.1 °F 74% 29.50 in 10.0 mi WNW 12.7 mph 19.6 mph 0.00 in   Overcast
1:54 AM 51.1 °F - 39.9 °F 66% 29.53 in 10.0 mi West 12.7 mph 20.7 mph N/A   Overcast
2:54 AM 48.0 °F - 34.0 °F 58% 29.58 in 10.0 mi NW 18.4 mph 29.9 mph N/A   Mostly Cloudy
3:54 AM 46.0 °F 40.6 °F 32.0 °F 58% 29.59 in 10.0 mi WNW 11.5 mph - N/A   Scattered Clouds
4:54 AM 45.0 °F 37.4 °F 32.0 °F 60% 29.60 in 10.0 mi WNW 18.4 mph 26.5 mph N/A   Partly Cloudy
5:54 AM 43.0 °F 36.0 °F 30.0 °F 60% 29.65 in 10.0 mi WNW 13.8 mph 20.7 mph N/A   Clear
6:54 AM 42.1 °F 36.6 °F 28.9 °F 60% 29.70 in 10.0 mi West 9.2 mph - N/A   Clear
7:54 AM 43.0 °F 36.0 °F 28.0 °F 56% 29.76 in 10.0 mi WNW 13.8 mph 24.2 mph N/A   Scattered Clouds
8:54 AM 43.0 °F 36.4 °F 28.9 °F 58% 29.81 in 10.0 mi WNW 12.7 mph 20.7 mph N/A   Overcast
9:54 AM 44.1 °F 36.2 °F 28.9 °F 55% 29.85 in 10.0 mi WNW 18.4 mph 24.2 mph N/A   Overcast
10:54 AM 44.1 °F 36.2 °F 28.9 °F 55% 29.88 in 10.0 mi WNW 18.4 mph 23.0 mph N/A   Overcast
11:54 AM 44.1 °F 36.8 °F 28.9 °F 55% 29.88 in 10.0 mi West 16.1 mph 26.5 mph N/A   Overcast
12:54 PM 45.0 °F 37.9 °F 28.9 °F 53% 29.89 in 10.0 mi NW 16.1 mph 27.6 mph N/A   Overcast
1:54 PM 46.0 °F 39.9 °F 28.9 °F 51% 29.91 in 10.0 mi WNW 13.8 mph 23.0 mph N/A   Scattered Clouds
2:54 PM 45.0 °F 37.6 °F 28.9 °F 53% 29.95 in 10.0 mi WNW 17.3 mph 21.9 mph N/A   Overcast
3:54 PM 45.0 °F 39.3 °F 28.9 °F 53% 29.99 in 10.0 mi WNW 11.5 mph 18.4 mph N/A   Mostly Cloudy
4:54 PM 43.0 °F 40.3 °F 28.0 °F 56% 30.00 in 10.0 mi WNW 4.6 mph - N/A   Mostly Cloudy
5:54 PM 42.1 °F 37.7 °F 28.9 °F 60% 30.04 in 10.0 mi West 6.9 mph - N/A   Mostly Cloudy
6:54 PM 41.0 °F 39.0 °F 28.9 °F 62% 30.07 in 10.0 mi WNW 3.5 mph - N/A   Clear
7:54 PM 37.9 °F 35.5 °F 28.0 °F 68% 30.08 in 10.0 mi SW 3.5 mph - N/A   Clear
8:54 PM 37.0 °F - 28.0 °F 70% 30.10 in 10.0 mi Calm Calm - N/A   Clear
9:54 PM 33.1 °F - 27.0 °F 78% 30.12 in 10.0 mi Calm Calm - N/A   Clear
10:54 PM 33.1 °F - 28.0 °F 82% 30.12 in 10.0 mi Calm Calm - N/A   Clear
11:54 PM 33.1 °F - 28.0 °F 82% 30.14 in 10.0 mi Calm Calm - N/A   Clear